RH
93 98 98 95 94 95 96 90 85 80 82 87 67 63 82 78 74 79 78 81 83 84 89 87 84 82 76 74 76 78 81 88 88 85 90 93 88 89 89 75 67 65 62 66 67 64 65 65 68 71 74 75
95 97 92 92 92 92 96 90 88 85 83 80 62 62 80 79 75 79 78 81 83 83 87 87 85 83 77 75 73 75 82 85 88 88 91 93 90 91 84 71 67 60 54 63 67 65 64 64 66 66 68 72
98 94 90 92 90 90 94 89 88 86 84 77 64 66 73 73 74 80 82 83 86 85 83 83 83 81 78 77 72 75 82 81 82 87 92 91 88 90 79 68 65 57 49 57 67 67 64 63 64 64 65 68
96 93 95 93 87 87 86 83 82 80 82 80 72 71 67 65 69 76 80 83 88 80 77 80 80 80 79 79 74 74 82 83 82 83 88 86 88 88 74 63 59 54 48 49 60 67 65 62 62 62 61 63
93 93 97 90 86 87 82 83 85 82 82 81 78 76 71 71 74 80 82 85 88 77 77 81 79 81 80 80 78 77 81 85 85 83 84 85 90 84 66 60 54 49 46 44 50 61 66 63 60 61 60 60
96 96 96 86 89 93 88 90 89 85 82 78 78 80 80 83 85 87 86 86 86 79 78 79 77 81 79 80 81 81 83 84 86 86 85 84 86 75 61 59 55 50 48 45 47 55 63 63 60 60 61 59
96 98 96 85 90 97 97 96 91 88 83 76 78 82 84 87 88 87 85 83 84 81 78 76 77 77 76 78 81 84 83 82 89 88 80 78 76 67 60 58 56 56 53 49 48 51 60 62 61 62 62 58
95 99 99 92 91 97 100 97 95 93 85 81 82 84 84 86 87 85 83 81 81 78 76 75 75 74 75 76 80 83 79 81 92 84 68 68 67 62 61 57 56 58 54 50 47 50 60 62 61 63 63 63
93 97 99 98 96 98 101 98 98 95 87 87 86 83 83 87 87 83 82 81 79 77 76 76 74 74 74 76 80 81 80 81 83 69 50 53 59 57 59 58 56 57 55 52 46 49 59 62 61 62 62 68
85 92 96 99 100 100 100 100 99 93 90 89 86 81 80 85 85 81 81 80 79 77 77 77 75 76 75 77 79 79 82 76 67 51 32 36 46 48 53 55 55 55 54 53 48 48 57 62 62 61 60 65
77 82 90 97 98 99 100 99 97 93 91 87 83 78 73 78 81 80 80 80 80 78 79 78 77 79 77 78 78 77 79 71 65 47 21 23 31 33 42 47 48 48 47 49 45 45 57 63 61 61 60 61
77 74 83 94 95 97 99 97 97 93 87 81 79 75 70 71 75 77 77 76 78 79 80 79 80 83 80 79 78 79 77 70 72 54 23 21 24 22 29 31 32 33 33 35 34 37 51 60 60 60 60 60
83 79 84 95 98 98 99 99 99 93 85 83 82 78 73 71 72 73 72 70 70 72 77 80 82 84 82 81 79 81 79 71 72 53 21 18 22 19 22 21 21 22 21 23 27 34 47 58 60 59 61 60
88 88 91 95 99 97 96 100 98 92 89 89 86 82 78 73 70 69 68 68 66 66 74 81 82 81 81 82 79 79 80 75 72 53 21 13 18 18 20 20 20 20 19 20 23 31 43 54 60 59 60 62
92 91 93 95 99 98 97 99 96 93 93 90 86 83 79 74 68 66 68 69 69 66 69 77 80 78 79 81 79 77 77 74 72 61 31 12 14 16 17 18 19 20 20 21 21 25 31 41 54 60 61 64
96 93 91 91 96 100 99 99 98 98 96 92 87 82 83 84 76 71 73 73 72 69 67 71 76 78 79 79 79 77 75 71 71 68 40 16 14 13 13 14 14 15 17 19 20 21 23 27 43 59 64 65
95 95 93 89 91 99 100 97 98 99 98 93 85 83 88 90 85 79 78 78 75 72 68 68 70 74 77 79 78 76 75 71 70 63 37 17 15 11 11 11 11 13 13 13 14 15 18 19 30 51 64 64
90 95 97 95 93 98 100 95 92 94 97 94 89 91 90 85 84 82 80 82 81 76 72 70 67 67 73 78 76 75 73 71 67 50 25 15 14 11 12 10 9 12 13 12 12 11 13 14 19 36 56 63
87 91 95 98 98 99 100 97 94 94 94 95 96 97 95 87 85 84 81 83 85 84 79 74 70 66 70 75 75 74 71 71 65 43 24 18 15 14 13 10 9 10 10 11 11 11 12 14 16 24 41 57
81 84 87 93 98 99 100 99 99 98 94 95 98 100 99 94 91 90 88 85 86 86 85 80 75 72 73 73 73 74 73 73 65 45 32 25 19 17 14 11 11 10 10 9 8 10 9 11 15 19 29 47
74 76 79 85 92 95 97 98 99 100 97 96 97 98 98 94 94 96 94 90 88 84 84 83 81 81 80 76 74 74 74 73 66 53 44 36 24 18 15 12 13 14 13 11 10 9 9 8 9 12 17 31
68 72 73 76 82 86 90 93 98 99 100 99 96 96 95 94 96 98 95 94 93 88 85 84 84 84 83 80 77 76 76 73 66 58 53 45 30 19 17 15 14 16 16 15 13 13 12 10 8 8 9 15
59 63 67 71 73 78 82 87 94 97 97 99 98 98 97 97 97 95 94 96 96 92 89 88 87 85 83 82 81 80 77 74 68 61 55 48 34 22 19 18 14 14 17 18 16 15 15 15 12 10 10 11
57 58 65 71 71 75 78 78 83 86 89 93 96 98 98 98 98 96 96 95 93 92 90 89 86 85 84 82 82 81 77 75 72 67 59 50 39 28 22 22 19 16 18 21 20 17 15 17 18 17 17 17
66 65 67 72 75 81 81 75 74 77 78 84 89 94 97 98 99 98 98 96 92 89 88 87 85 84 83 82 82 81 77 76 75 72 63 51 41 32 26 26 24 21 21 24 27 26 24 23 23 22 22 22
71 70 68 70 73 78 80 73 73 75 73 75 79 84 91 96 99 99 99 99 97 92 89 88 87 86 84 83 83 82 80 79 76 71 63 52 44 36 29 27 26 25 24 27 30 31 32 31 29 27 24 23
68 68 65 67 67 69 73 70 70 71 67 68 73 76 81 87 93 99 100 99 99 98 97 95 91 89 88 85 84 83 82 81 76 69 61 55 48 38 32 30 28 26 24 26 28 30 34 36 34 32 29 26
60 61 56 58 60 59 63 63 62 60 57 59 66 73 78 82 85 91 97 99 100 100 100 99 98 94 91 87 84 83 82 80 76 69 62 57 49 40 36 33 31 27 23 23 25 31 38 39 35 33 30 29
50 55 54 53 53 51 52 56 59 60 61 61 63 67 73 80 85 87 91 95 98 100 100 100 100 99 96 92 89 85 83 80 76 72 67 60 50 45 42 35 31 30 26 24 20 24 34 38 38 35 29 27
43 50 56 59 61 63 65 67 68 70 72 70 68 68 66 70 78 83 87 91 95 98 100 100 100 100 99 97 94 90 86 82 79 75 70 63 54 51 48 40 36 33 29 28 23 18 23 29 32 31 28 27
42 45 50 56 64 69 73 75 74 73 72 69 68 68 64 62 65 71 77 84 90 95 98 99 99 100 99 99 97 93 88 84 81 77 72 66 57 52 49 45 44 40 34 32 29 22 19 21 23 21 23 27
Wind_Speed
15 21 28 31 31 32 33 35 34 30 27 26 23 23 27 27 27 30 27 25 24 23 20 20 20 18 18 20 19 17 17 16 17 18 17 17 15 13 12 16 18 16 17 18 19 20 22 22 22 21 21 19
20 27 28 30 32 31 31 32 31 27 26 26 24 27 31 30 30 31 28 26 27 26 24 23 22 20 20 20 19 18 18 18 17 17 16 16 16 13 14 16 18 18 17 17 18 18 20 21 21 20 20 19
23 29 30 32 31 29 28 27 25 24 25 26 26 29 33 32 32 32 31 29 29 29 28 25 24 24 22 22 22 19 20 20 18 17 16 15 15 15 18 17 18 19 18 18 17 17 18 20 21 20 18 18
22 25 29 31 29 29 27 25 25 25 27 28 27 29 31 31 31 33 32 30 30 30 30 28 26 27 26 25 25 21 20 21 19 18 16 16 16 17 20 19 18 19 18 18 17 17 17 19 20 19 17 16
24 26 29 30 28 29 28 27 28 28 30 30 30 31 31 31 33 34 32 31 30 29 31 29 28 29 27 26 26 23 21 21 20 19 17 18 19 20 21 20 19 19 18 17 16 17 17 18 19 18 18 16
26 29 31 28 27 31 30 30 31 31 32 31 32 32 32 33 34 34 33 32 30 30 32 30 29 28 26 26 26 25 23 22 21 20 20 19 21 22 21 19 19 20 19 18 16 17 17 18 18 18 18 16
22 30 33 29 27 32 32 32 34 34 34 33 34 34 34 35 34 35 34 33 32 31 32 30 29 27 26 26 25 25 24 23 21 21 22 22 23 23 21 19 19 20 19 19 17 17 17 18 19 19 19 17
17 28 33 31 30 33 35 35 35 36 36 35 35 35 35 35 34 35 34 33 32 31 32 30 29 27 27 26 26 26 24 24 21 20 23 25 26 25 22 20 20 20 20 19 18 17 18 18 20 20 19 18
18 23 29 31 33 35 36 37 37 37 37 36 37 36 36 34 33 34 33 32 32 32 33 30 29 29 28 28 28 26 25 26 23 21 25 27 27 26 23 22 20 20 20 20 19 19 19 19 20 20 19 19
18 20 26 30 32 34 36 37 37 37 37 37 38 36 36 33 32 33 33 33 33 33 33 30 30 30 29 31 30 29 28 28 23 22 27 28 27 26 24 23 21 21 20 20 20 20 19 20 20 21 20 19
15 17 21 25 25 30 36 38 38 38 38 37 37 36 36 35 33 34 33 33 33 34 33 30 31 31 30 31 31 31 30 28 24 23 27 28 28 27 25 24 23 21 20 20 20 20 20 20 20 21 21 20
14 14 17 21 22 25 35 40 40 40 39 38 39 38 37 37 36 35 34 33 34 34 33 31 30 30 30 30 30 31 30 28 24 23 27 29 29 29 27 26 24 23 21 20 20 22 22 20 21 22 21 21
16 14 15 20 23 23 30 36 38 39 40 40 42 41 40 39 38 36 34 34 35 35 34 32 31 30 31 31 30 31 30 28 25 24 25 27 28 29 29 29 27 25 23 22 21 22 23 22 22 23 22 22
17 16 17 20 22 22 27 34 36 40 42 42 42 41 41 39 36 35 35 35 36 36 36 34 33 31 32 32 31 31 30 28 25 24 25 25 26 27 28 29 30 28 27 25 23 23 24 23 23 23 24 23
20 17 17 19 21 22 29 34 37 40 41 41 42 40 40 38 36 35 36 38 38 37 37 36 35 33 33 33 32 31 30 28 25 23 24 24 24 24 25 26 27 28 29 28 26 25 24 24 23 23 24 24
16 18 17 17 19 22 29 32 32 36 38 39 41 40 39 38 37 38 38 39 39 39 38 38 38 36 35 34 34 33 31 29 27 24 23 23 23 22 23 23 24 25 27 28 28 27 26 25 25 25 24 25
13 13 16 17 18 20 27 31 31 32 35 38 41 41 41 38 37 38 38 39 40 40 39 39 39 38 37 37 35 34 31 30 28 25 24 24 23 22 22 22 22 22 23 25 26 27 27 27 27 26 26 25
18 15 12 14 18 18 22 30 34 34 34 37 39 39 38 39 39 38 38 38 38 39 39 39 40 40 39 39 37 35 33 31 30 27 25 24 24 23 22 22 23 23 22 22 24 25 26 27 28 28 27 26
25 21 16 10 12 17 21 27 32 35 35 35 35 34 34 37 38 38 39 38 36 35 36 38 39 40 40 40 38 36 35 33 31 29 27 26 25 24 23 23 24 23 23 22 22 23 24 25 26 27 28 27
30 27 25 20 10 7 14 21 28 33 36 35 33 30 31 36 35 35 36 38 38 35 33 35 37 38 39 39 38 37 36 34 33 31 29 27 26 26 25 25 25 24 24 23 23 22 22 23 24 25 26 27
31 30 30 28 23 15 6 4 13 24 33 36 35 30 28 33 34 33 33 33 35 37 36 34 33 34 35 36 38 37 36 35 35 33 31 29 28 28 27 27 26 25 24 23 23 23 23 23 23 24 25 26
31 29 30 31 29 27 21 17 11 4 15 23 30 32 31 33 32 30 32 32 31 33 35 35 32 32 33 34 35 36 36 36 34 33 31 30 29 28 28 28 27 26 25 23 22 22 22 23 23 24 25 26
35 31 30 30 30 31 30 26 22 17 9 5 9 16 22 28 31 32 34 32 29 30 31 32 31 30 32 33 34 34 34 34 33 31 31 30 30 29 28 28 28 27 25 23 22 21 21 21 22 23 23 24
41 37 33 31 31 31 31 30 27 26 22 17 13 10 9 15 23 30 35 34 32 31 31 31 31 31 31 32 34 35 34 35 34 33 32 31 31 30 28 27 27 27 25 23 20 19 21 20 20 21 21 23
38 37 33 30 30 28 27 29 29 29 29 26 23 19 12 8 10 17 24 31 34 34 35 34 34 35 34 34 35 36 37 36 35 34 33 31 31 31 29 27 27 27 26 22 17 14 16 17 18 18 19 21
34 33 30 25 24 22 22 26 28 29 30 29 27 26 22 17 10 9 12 18 27 32 36 36 36 36 36 36 37 36 36 35 34 34 33 32 30 29 29 28 27 29 26 19 16 13 8 8 12 15 18 20
33 32 30 26 23 21 19 22 25 26 28 29 28 28 27 25 20 14 11 11 15 22 28 31 34 35 35 35 36 36 36 35 34 34 34 34 32 29 27 25 26 32 29 20 17 12 6 3 5 8 14 19
33 32 32 29 26 25 22 23 28 29 30 31 30 30 28 27 27 22 17 15 13 14 18 22 26 29 32 34 35 37 37 36 36 35 35 35 34 30 26 23 25 32 32 26 20 12 3 2 3 3 9 16
36 35 36 35 33 35 34 33 37 37 35 35 33 32 31 29 27 25 22 20 18 14 13 17 21 23 26 29 33 36 38 39 40 39 39 38 37 36 32 27 24 30 33 30 28 20 7 4 3 4 6 10
39 38 38 38 37 36 35 33 34 33 31 31 30 29 30 29 27 26 24 22 21 19 16 14 17 21 24 26 28 32 34 36 37 38 40 40 40 40 38 33 25 27 34 32 31 27 16 7 4 4 8 6
39 39 38 36 33 30 29 27 26 27 26 26 27 27 28 29 28 28 26 25 24 22 20 18 16 18 22 26 28 30 32 34 34 35 37 38 39 39 37 35 29 29 31 30 32 33 25 13 5 6 12 8
Wind_Direction
225 190 169 159 159 157 153 157 159 159 158 158 158 152 154 156 153 158 163 165 162 157 156 152 150 152 156 157 152 149 150 145 143 146 143 141 146 149 149 142 133 133 137 129 126 128 130 132 133 135 134 131
202 173 162 160 161 159 158 162 164 166 165 163 160 155 155 159 161 161 162 165 162 160 160 158 154 150 153 155 154 157 158 153 152 149 144 146 146 153 159 146 136 141 144 138 132 132 134 135 135 137 136 132
185 170 166 166 165 163 164 168 173 172 167 164 160 157 158 162 165 162 162 165 163 162 164 166 163 156 156 156 156 162 162 159 160 154 149 153 151 160 165 149 140 146 149 147 141 136 137 139 138 138 138 135
177 172 171 169 170 172 175 180 184 178 169 167 162 160 162 164 164 164 166 166 167 167 167 170 168 161 159 160 160 161 163 161 163 161 156 160 165 167 162 151 146 148 151 153 150 144 139 143 145 143 143 142
186 184 180 177 179 181 185 187 185 178 171 169 167 168 168 166 164 166 167 167 171 170 167 170 167 164 162 162 162 161 162 163 164 162 157 165 174 166 157 155 154 154 155 156 158 154 146 147 151 149 149 150
193 190 186 184 185 184 187 186 182 177 173 172 173 174 171 168 167 166 167 170 174 170 168 170 168 166 164 162 163 161 160 161 162 164 166 172 173 162 158 161 161 162 161 160 163 162 155 153 154 152 152 154
201 193 191 192 192 188 187 185 182 177 175 176 176 176 173 171 169 168 171 173 173 172 171 170 169 169 167 166 164 163 163 162 159 168 177 175 168 164 164 167 168 169 167 165 167 165 161 156 155 155 155 156
230 203 197 199 198 193 190 186 182 178 177 178 177 176 174 175 173 172 173 174 175 175 173 171 172 172 170 170 169 170 169 165 164 172 178 171 167 168 169 173 174 173 172 170 170 169 165 159 157 157 156 157
264 222 204 202 200 196 191 186 183 179 179 179 178 177 176 177 176 175 174 177 179 177 176 175 176 175 174 173 173 174 171 171 176 179 176 170 169 171 174 179 180 178 177 173 173 173 169 165 162 161 159 157
272 245 218 207 202 197 189 184 183 181 181 180 179 179 178 179 177 177 178 180 180 179 179 179 178 178 178 176 175 177 176 179 184 183 178 173 172 175 179 183 184 184 182 178 176 176 175 172 168 166 165 162
264 260 239 222 208 196 187 184 185 184 183 182 182 183 182 183 181 180 183 183 182 182 183 183 180 180 182 179 179 182 184 187 188 186 181 177 177 179 181 185 189 190 189 186 182 180 179 178 175 172 171 169
256 264 259 241 222 199 188 188 189 186 187 188 189 188 187 186 186 185 186 186 186 186 188 189 186 185 186 185 186 187 190 191 191 191 186 183 182 182 184 187 191 193 193 192 189 187 185 184 183 180 178 176
253 255 258 247 232 211 195 191 190 188 191 193 191 190 188 186 186 187 188 189 189 189 191 192 192 192 190 189 190 190 193 194 192 193 191 188 186 185 187 189 191 193 193 192 191 190 189 188 187 187 185 181
249 249 249 244 238 225 208 198 192 192 193 193 190 189 189 188 189 190 192 193 191 191 193 193 195 196 195 194 194 194 195 196 195 196 196 194 191 189 189 190 192 193 193 193 192 192 192 191 190 190 190 187
244 242 247 247 243 232 216 205 197 196 196 194 192 192 192 193 195 196 196 196 194 193 194 195 197 199 199 199 200 200 199 199 201 203 202 200 197 195 194 193 193 194 194 193 194 195 196 196 194 193 193 192
258 242 241 249 250 234 217 207 201 198 195 193 192 193 196 196 197 199 199 197 197 196 196 197 199 201 202 203 203 203 203 203 205 207 207 205 202 200 199 196 195 195 195 194 195 196 197 198 197 195 194 194
321 280 251 247 252 240 221 211 207 201 195 195 196 198 199 197 197 200 201 201 200 199 198 199 200 202 204 205 205 205 205 205 206 207 206 204 203 203 200 198 196 196 197 195 194 195 197 197 196 196 195 196
6 343 301 262 251 243 228 218 214 208 202 200 201 203 202 201 202 202 204 204 203 202 201 200 201 203 205 206 207 207 207 207 206 205 204 202 201 202 201 200 199 198 198 197 195 195 196 196 196 197 196 197
25 19 6 332 266 243 233 225 219 212 208 207 208 209 206 206 207 206 206 207 206 206 204 203 203 205 206 207 208 208 208 208 207 205 204 203 200 200 200 200 200 199 199 197 197 197 196 196 196 196 197 198
31 32 30 25 7 275 240 230 225 217 213 212 214 215 210 210 211 211 210 209 209 209 208 207 207 207 207 207 208 209 209 208 207 206 205 205 204 201 198 199 199 199 200 197 197 198 198 198 198 197 198 199
30 33 35 36 36 30 11 274 240 226 220 217 220 225 220 215 215 215 215 213 212 211 211 212 211 209 208 209 209 208 208 209 209 208 206 206 207 206 200 198 197 197 199 198 197 198 199 199 200 201 201 202
26 28 31 33 38 38 36 33 19 286 232 227 227 232 230 223 221 219 219 219 217 213 212 213 215 213 211 210 210 209 208 208 209 209 209 207 206 207 204 200 199 198 198 198 197 197 198 199 201 203 204 205
24 25 26 25 30 34 34 36 35 32 20 323 262 249 239 231 228 225 222 222 221 219 217 216 217 217 215 213 211 209 207 206 207 209 210 210 207 206 208 208 206 201 197 195 197 197 198 201 203 204 205 206
23 23 22 19 23 26 27 30 34 34 32 27 15 347 288 249 237 231 227 226 225 224 223 221 220 220 219 217 214 212 210 210 210 211 211 211 209 206 206 209 209 204 197 190 191 196 198 202 206 209 209 209
21 20 18 15 16 17 18 24 28 28 28 30 27 20 4 322 271 250 240 233 229 228 228 226 224 222 221 220 218 216 216 216 214 214 213 210 209 207 205 204 205 203 194 182 179 189 198 202 206 211 214 216
20 19 19 16 14 13 13 20 24 23 22 25 26 26 23 12 346 305 277 251 238 233 231 228 224 222 221 220 219 218 219 219 217 214 211 208 207 208 207 205 203 198 189 181 178 173 173 199 212 217 221 223
20 19 21 23 22 21 21 22 23 21 19 19 19 21 22 20 13 356 334 303 267 245 235 230 227 225 223 222 220 219 218 217 215 212 210 209 208 206 207 208 205 199 194 187 170 152 146 183 203 227 231 229
20 19 20 23 24 26 28 25 23 22 19 17 15 14 15 16 15 10 2 347 321 280 252 238 233 231 228 226 224 222 220 217 215 214 213 211 207 205 206 209 208 203 201 195 175 152 107 127 139 242 230 222
19 20 19 20 20 20 21 20 19 18 16 15 14 12 10 11 11 11 9 4 354 332 293 263 247 240 236 233 230 225 222 221 219 218 217 214 209 207 208 210 210 206 205 205 195 180 153 121 171 242 197 199
19 20 20 20 19 17 16 15 15 13 10 9 11 10 10 10 10 10 10 8 4 359 345 315 282 263 252 244 238 232 227 225 223 220 218 216 212 210 209 208 209 210 207 209 208 199 189 183 211 207 159 154
19 20 20 20 21 19 15 12 9 8 8 7 8 9 11 12 12 11 11 10 7 5 3 352 330 300 275 259 249 242 235 232 229 226 223 219 216 214 209 204 206 213 210 209 215 214 212 220 250 204 177 173